カタログに戻る

CSTP-4.1

運用中科学SSO
NORAD 64884·PAYLOAD·🇷🇺 Russia
この衛星名は、まだ公式ソースで確認されていません。

打ち上げ Jul 25, 2025 から Vostochny Cosmodrome

Loading…

次のパス (今後24時間)

TLE

最新Source: Space-Track

元期: Sep 14, 2026, 14:50 UTC

1 64884U 25155J   26257.61810028  .00007586  00000-0  25695-3 0  9992
2 64884  97.4679 226.5267 0006776 193.0031 167.1036 15.30845621 94436

AllMySatでCSTP-4.1をリアルタイム追跡

Download on the App Store